Weather History for KVVV - February, 2013

Change the Weather History Date:

Friday, February 22, 2013

  Actual Average (KAQP) Record (KAQP)
Temperature  
Mean Temperature 16 °F -  
Max Temperature 19 °F 26 °F 53 °F (1998)
Min Temperature 12 °F 10 °F -13 °F (2015)
Degree Days  
Heating Degree Days 50    
Moisture  
Dew Point 12 °F    
Average Humidity 80    
Maximum Humidity 86    
Minimum Humidity 74    
Precipitation  
Precipitation 0.00 in - - ()
Sea Level Pressure  
Sea Level Pressure 29.96 in    
Wind  
Wind Speed 8 mph (NNW)    
Max Wind Speed 15 mph    
Max Gust Speed 20 mph    
Visibility 6 miles    
Events Snow    
Averages and records for this station are not official NWS values.
T = Trace of Precipitation, MM = Missing Value Source: NWS Daily Summary

Daily Weather History Graph

Daily Weather History Graph

Search for Another Location

Airport or City:

Trip Planner

Search our weather history database for the weather conditions in past years. The results will help you decide how hot, cold, wet, or windy it might be!

Date:

Astronomy

Feb. 22, 2013 Rise Set
Actual Time 7:15 AM CST 6:03 PM CST
Civil Twilight 6:45 AM CST 6:33 PM CST
Nautical Twilight 6:11 AM CST 7:07 PM CST
Astronomical Twilight 5:37 AM CST 7:41 PM CST
Moon 3:10 PM CST (2/22) 5:07 AM CST (2/22)
Length of Visible Light 11h 48m
Length of Day
10h 48m
Waxing Gibbous, 90% of the Moon is Illuminated
Feb 22
Waxing Gibbous
Feb 25
Full
Mar 4
Last Quarter
Mar 11
New
Mar 19
First Quarter

Hourly Weather History & Observations

Time (CST) Temp. Windchill Dew Point Humidity Pressure Visibility Wind Dir Wind Speed Gust Speed Precip Events Conditions
12:13 AM 15.8 °F 7.2 °F 10.4 °F 79% 30.08 in 1.5 mi NNW 5.8 mph - N/A Snow Light Snow
12:34 AM 15.8 °F 6.1 °F 10.4 °F 79% 30.08 in 1.5 mi NNW 6.9 mph - N/A Snow Light Snow
12:54 AM 15.8 °F 6.1 °F 10.4 °F 79% 30.07 in 2.5 mi NNW 6.9 mph - N/A Snow Light Snow
1:14 AM 15.8 °F 7.2 °F 10.4 °F 79% 30.05 in 7.0 mi NNW 5.8 mph - N/A Snow Light Snow
1:34 AM 15.8 °F 7.2 °F 12.2 °F 86% 30.04 in 4.0 mi NNW 5.8 mph - N/A Snow Light Snow
1:53 AM 15.8 °F 8.6 °F 12.2 °F 86% 30.04 in 10.0 mi NNW 4.6 mph - N/A   Overcast
2:14 AM 15.8 °F 7.2 °F 12.2 °F 86% 30.04 in 7.0 mi NNW 5.8 mph - N/A Snow Light Snow
2:34 AM 15.8 °F 8.6 °F 10.4 °F 79% 30.04 in 5.0 mi NW 4.6 mph - N/A Snow Light Snow
2:54 AM 15.8 °F 7.2 °F 10.4 °F 79% 30.03 in 7.0 mi NNW 5.8 mph - N/A Snow Light Snow
3:14 AM 15.8 °F 7.2 °F 10.4 °F 79% 30.03 in 10.0 mi NNW 5.8 mph - N/A   Overcast
3:33 AM 15.8 °F 6.1 °F 10.4 °F 79% 30.02 in 10.0 mi NNW 6.9 mph - N/A   Overcast
3:54 AM 15.8 °F 7.2 °F 10.4 °F 79% 30.02 in 10.0 mi NNW 5.8 mph - N/A   Overcast
4:14 AM 15.8 °F 6.1 °F 10.4 °F 79% 30.02 in 10.0 mi NNW 6.9 mph - N/A   Overcast
4:33 AM 15.8 °F 5.1 °F 10.4 °F 79% 30.01 in 10.0 mi NNW 8.1 mph - N/A   Overcast
4:54 AM 15.8 °F 5.1 °F 10.4 °F 79% 30.01 in 10.0 mi NNW 8.1 mph - N/A   Overcast
5:14 AM 15.8 °F 5.1 °F 10.4 °F 79% 30.01 in 2.5 mi NNW 8.1 mph - N/A Snow Light Snow
5:33 AM 15.8 °F 4.2 °F 10.4 °F 79% 30.00 in 4.0 mi NNW 9.2 mph - N/A Snow Light Snow
5:54 AM 15.8 °F 3.4 °F 10.4 °F 79% 29.99 in 3.0 mi NNW 10.4 mph - N/A Snow Light Snow
6:14 AM 15.8 °F 3.4 °F 10.4 °F 79% 29.99 in 5.0 mi NNW 10.4 mph - N/A Snow Light Snow
6:34 AM 15.8 °F 3.4 °F 10.4 °F 79% 29.99 in 2.5 mi NNW 10.4 mph - N/A Snow Light Snow
6:54 AM 15.8 °F 3.4 °F 10.4 °F 79% 29.99 in 4.0 mi North 10.4 mph - N/A Snow Light Snow
7:14 AM 15.8 °F 5.1 °F 12.2 °F 86% 29.99 in 2.5 mi NNW 8.1 mph - N/A Snow Light Snow
7:34 AM 15.8 °F 5.1 °F 12.2 °F 86% 29.98 in 1.2 mi NNW 8.1 mph - N/A Snow Light Snow
7:54 AM 15.8 °F 4.2 °F 12.2 °F 86% 29.98 in 2.5 mi NNW 9.2 mph - N/A Snow Light Snow
8:13 AM 15.8 °F 5.1 °F 12.2 °F 86% 29.98 in 4.0 mi NNW 8.1 mph - N/A Snow Light Snow
8:34 AM 15.8 °F 4.2 °F 12.2 °F 86% 29.98 in 7.0 mi NNW 9.2 mph - N/A Snow Light Snow
8:54 AM 15.8 °F 5.1 °F 12.2 °F 86% 29.98 in 10.0 mi NNW 8.1 mph - N/A Snow Light Snow
9:14 AM 17.6 °F 7.3 °F 12.2 °F 79% 29.97 in 5.0 mi NNW 8.1 mph - N/A Snow Light Snow
9:34 AM 17.6 °F 7.3 °F 12.2 °F 79% 29.97 in 10.0 mi NNW 8.1 mph - N/A   Scattered Clouds
10:14 AM 17.6 °F 7.3 °F 12.2 °F 79% 29.97 in 7.0 mi NNW 8.1 mph - N/A Snow Light Snow
10:34 AM 17.6 °F 8.2 °F 12.2 °F 79% 29.97 in 1.8 mi NNW 6.9 mph - N/A Snow Light Snow
10:54 AM 17.6 °F 7.3 °F 12.2 °F 79% 29.96 in 1.2 mi NW 8.1 mph - N/A Snow Light Snow
11:14 AM 17.6 °F 7.3 °F 12.2 °F 79% 29.96 in 1.2 mi NNW 8.1 mph - N/A Snow Light Snow
11:33 AM 17.6 °F 5.7 °F 12.2 °F 79% 29.95 in 1.2 mi NNW 10.4 mph - N/A Snow Light Snow
11:54 AM 17.6 °F 5.7 °F 12.2 °F 79% 29.94 in 1.8 mi NNW 10.4 mph - N/A Snow Light Snow
12:13 PM 17.6 °F 4.3 °F 12.2 °F 79% 29.94 in 2.0 mi NNW 12.7 mph - N/A Snow Light Snow
12:34 PM 19.4 °F 7.2 °F 12.2 °F 74% 29.93 in 1.8 mi NNW 11.5 mph - N/A Snow Light Snow
12:54 PM 19.4 °F 7.2 °F 12.2 °F 74% 29.93 in - NNW 11.5 mph - N/A Snow Light Snow
1:13 PM 19.4 °F 6.6 °F 14.0 °F 80% 29.93 in 1.2 mi NNW 12.7 mph - N/A Snow Light Snow
1:34 PM 19.4 °F 6.0 °F 14.0 °F 80% 29.93 in 1.8 mi NNW 13.8 mph - N/A Snow Light Snow
1:54 PM 19.4 °F 6.0 °F 14.0 °F 80% 29.92 in 2.5 mi NNW 13.8 mph - N/A Snow Light Snow
2:14 PM 19.4 °F 6.6 °F 14.0 °F 80% 29.93 in 4.0 mi NNW 12.7 mph - N/A Snow Light Snow
2:33 PM 19.4 °F 6.6 °F 12.2 °F 74% 29.93 in 4.0 mi NW 12.7 mph 19.6 mph N/A Snow Light Snow
2:54 PM 19.4 °F 5.5 °F 12.2 °F 74% 29.93 in 1.8 mi NW 15.0 mph 18.4 mph N/A Snow Light Snow
3:14 PM 19.4 °F 6.6 °F 12.2 °F 74% 29.93 in 1.5 mi NW 12.7 mph - N/A Snow Light Snow
3:33 PM 19.4 °F 6.6 °F 12.2 °F 74% 29.93 in 2.0 mi NW 12.7 mph 17.3 mph N/A Snow Light Snow
3:54 PM 19.4 °F 7.2 °F 12.2 °F 74% 29.92 in 2.5 mi NW 11.5 mph - N/A Snow Light Snow
4:14 PM 17.6 °F 5.7 °F 12.2 °F 79% 29.93 in 3.0 mi NW 10.4 mph - N/A Snow Light Snow
4:34 PM 17.6 °F 5.0 °F 12.2 °F 79% 29.93 in 4.0 mi NW 11.5 mph - N/A Snow Light Snow
4:54 PM 17.6 °F 6.4 °F 12.2 °F 79% 29.93 in 10.0 mi NW 9.2 mph - N/A Snow Light Snow
5:14 PM 17.6 °F 7.3 °F 12.2 °F 79% 29.93 in 10.0 mi NW 8.1 mph - N/A   Overcast
5:34 PM 17.6 °F 8.2 °F 14.0 °F 86% 29.93 in 10.0 mi NNW 6.9 mph - N/A   Overcast
5:54 PM 17.6 °F 8.2 °F 14.0 °F 86% 29.93 in 10.0 mi NNW 6.9 mph - N/A   Overcast
6:13 PM 17.6 °F 7.3 °F 14.0 °F 86% 29.93 in 10.0 mi NNW 8.1 mph - N/A   Overcast
6:34 PM 17.6 °F 9.3 °F 14.0 °F 86% 29.93 in 10.0 mi NNW 5.8 mph - N/A   Overcast
6:54 PM 17.6 °F 9.3 °F 12.2 °F 79% 29.93 in 10.0 mi NNW 5.8 mph - N/A   Overcast
7:14 PM 17.6 °F - 12.2 °F 79% 29.94 in 10.0 mi Calm Calm - N/A   Overcast
7:34 PM 17.6 °F 12.3 °F 12.2 °F 79% 29.93 in 10.0 mi NNW 3.5 mph - N/A   Overcast
7:54 PM 17.6 °F 10.7 °F 12.2 °F 79% 29.93 in 10.0 mi NW 4.6 mph - N/A   Overcast
8:14 PM 17.6 °F 10.7 °F 12.2 °F 79% 29.92 in 10.0 mi NW 4.6 mph - N/A   Overcast
8:34 PM 17.6 °F 9.3 °F 12.2 °F 79% 29.91 in 10.0 mi WNW 5.8 mph - N/A   Scattered Clouds
8:53 PM 15.8 °F 8.6 °F 10.4 °F 79% 29.91 in 10.0 mi NW 4.6 mph - N/A   Scattered Clouds
9:14 PM 15.8 °F 8.6 °F 10.4 °F 79% 29.92 in 10.0 mi West 4.6 mph - N/A   Overcast
9:34 PM 15.8 °F 8.6 °F 10.4 °F 79% 29.91 in 10.0 mi NW 4.6 mph - N/A   Mostly Cloudy
9:54 PM 15.8 °F 8.6 °F 10.4 °F 79% 29.91 in 10.0 mi NW 4.6 mph - N/A   Clear
10:14 PM 15.8 °F 7.2 °F 10.4 °F 79% 29.91 in 10.0 mi NW 5.8 mph - N/A   Clear
10:34 PM 15.8 °F 8.6 °F 10.4 °F 79% 29.91 in 10.0 mi NW 4.6 mph - N/A   Clear
10:53 PM 15.8 °F 7.2 °F 10.4 °F 79% 29.91 in 10.0 mi NW 5.8 mph - N/A   Clear
11:14 PM 15.8 °F 10.2 °F 10.4 °F 79% 29.91 in 10.0 mi NW 3.5 mph - N/A   Clear
11:34 PM 12.2 °F 4.3 °F 8.6 °F 85% 29.91 in 10.0 mi WNW 4.6 mph - N/A   Clear
11:53 PM 14.0 °F 8.2 °F 8.6 °F 79% 29.90 in 10.0 mi West 3.5 mph - N/A   Clear